Starlink 30368

operational
NORAD ID: 57752 Int'l Des: 2023-131 Owner: SPXS Country: US Constellation: starlink
LEOCIRCULAR

关于 Starlink 30368

正在加载描述...

实时位置

正在加载3D地球...

即将过境

高度历史

Altitude vs Time

uPlot chart will show altitude changes over time

两行轨道根数

1 57752U 23131W 25305.58595049 -.00000239 00000-0 -26352-5 0 9995
2 57752 43.0008 147.8690 0000319 261.2111 98.8696 15.02526044120654
Epoch: Nov 1, 2025 • Age: 8 hours

当前状态

高度 558.6 km
速度 7.58 km/s
星下点 2.75°N, 136.68°E
发射日期 Sep 1, 2023
运行时间 2.1 years
类型 internet

技术详情

分类 Payload
质量 730.00 kg
干质量 700.00 kg
总质量 730.00 kg
长度 0.30 m
直径 4.10 m
跨度 29.00 m
形状 Box + pan
制造商 SPXS
平台类型 Starlink V2M
阶段状态 In Orbit
所有者/国家 SPXS/US

大型星座

Loading constellations...